UUMO

Details ICAO UUMO
Name Ostafievo
Region Russia
Timezone Europe/Moscow (UTC+3.0)
Plans Departing 19
Arriving 15
Stats Elevation 561 ft / 171 m (AMSL)
Location 55.507626° 37.503877°
Runways 1
Magnetic Variation 11.031° E
Sunrise 2018-05-24 01:06:54 UTC / 2018-05-24 04:06:54 Local
Sunset 2018-05-24 17:49:36 UTC / 2018-05-24 20:49:36 Local
Advertisement - Login to hide

Runways

ID Width Length Bearing (true) Bearing (mag) Surface Threshold Offset Overrun Length
08 157 ft / 48 m 6,733 ft / 2,052 m 84.79° 73.76° Concrete 0 ft / 0 m 164 ft / 50 m
26 157 ft / 48 m 6,733 ft / 2,052 m 264.81° 253.78° Concrete 394 ft / 120 m 164 ft / 50 m

Approach Navaids

Runway Type Ident Frequency Range Bearing (true) Bearing (mag) Slope Elevation
26 Localiser IPS 108.30 MHz 50 nm / 93 km 264.62° 253.59° - 561 ft / 171 m (AMSL)
26 Glidescope IPS 108.30 MHz 50 nm / 93 km 256.00° 244.97° 3.10° 561 ft / 171 m (AMSL)

Map

Weather


0- 5 10 15 20 25 30 35+ Temperature / ° C

Clouds and Precipitation
Forecast for 2018-05-24 18:00 UTC. Updated 3 hours ago

Ground ~20,000 ft ~40,000 ft Winds

METAR

UUMO 241900Z 04002MPS 010V070 CAVOK 16/09 Q1021 R08/090060 NOSIG RMK QFE751/1001

TAF

Not found

Frequencies

Recorded 127.60 MHz Ostafievo ATIS
Approach 124.00 MHz Nebesniy Podhod
Tower 119.20 MHz Ostafievo Tower
Warning: Do not use this data for real-world aviation or navigation. No guarantee of current accuracy is given.